Location: Majorville
(50.6333°N, 112.7000°W)
Time: 10:09:00
(UTC+00:00)

N. Korean satellite - Visible Passes

Search period start: 02 December 2021 00:00
Search period end: 12 December 2021 00:00
Orbit: 447 x 495 km, 97.3° (Epoch: 01 December)

Date Brightness Start Highest point End Pass type
(mag) Time Alt. Az. Time Alt. Az. Time Alt. Az.
02 Dec 9.5 00:45:16 10° SW 00:48:00 20° W 00:50:41 10° NW visible
02 Dec 9.1 12:04:53 10° NE 12:07:29 20° E 12:10:05 10° SE visible
02 Dec 7.1 13:37:43 10° N 13:40:46 31° WNW 13:43:47 10° SW visible
03 Dec 8.0 00:15:59 10° S 00:19:20 41° W 00:22:42 10° NNW visible
03 Dec 6.2 13:08:58 10° N 13:12:22 67° WNW 13:15:43 10° SSW visible
04 Dec 7.1 12:40:29 10° NNE 12:43:49 53° E 12:47:08 10° S visible
04 Dec 8.2 14:14:50 10° NNW 14:16:39 14° WNW 14:18:26 10° W visible
05 Dec 9.6 00:53:21 10° SW 00:55:42 17° W 00:58:04 10° NW visible
05 Dec 8.7 12:12:20 10° NE 12:15:11 24° E 12:18:00 10° SSE visible
05 Dec 7.4 13:45:29 10° N 13:48:21 26° WNW 13:51:12 10° SW visible
06 Dec 8.5 00:23:47 10° SSW 00:27:00 33° W 00:30:12 10° NNW visible
06 Dec 9.8 11:44:57 10° ENE 11:46:24 12° E 11:47:51 10° ESE visible
06 Dec 6.4 13:16:37 10° N 13:19:57 54° WNW 13:23:14 10° SSW visible
07 Dec 6.7 12:48:01 10° NNE 12:51:24 66° ESE 12:54:46 10° S visible
07 Dec 8.3 14:22:51 10° NW 14:24:07 12° WNW 14:25:23 10° W visible
08 Dec 9.8 01:01:26 10° WSW 01:03:20 14° W 01:05:14 10° WNW visible
08 Dec 8.3 12:19:43 10° NNE 12:22:45 29° E 12:25:46 10° SSE visible
08 Dec 7.6 13:53:09 10° NNW 13:55:50 22° WNW 13:58:29 10° WSW visible
09 Dec 8.9 00:31:32 10° SSW 00:34:34 27° W 00:37:35 10° NW visible
09 Dec 9.5 11:51:59 10° NE 11:53:58 15° E 11:55:58 10° SE visible
09 Dec 6.7 13:24:10 10° N 13:27:24 43° WNW 13:30:38 10° SW visible
10 Dec 7.2 00:02:27 10° S 00:05:53 59° WSW 00:09:18 10° NNW visible
10 Dec 7.5 12:55:28 10° NNE 13:00:14 34° S 13:02:16 10° SSW visible
11 Dec 10.0 01:09:41 10° WSW 01:10:53 11° W 01:12:04 10° WNW visible
11 Dec 8.6 12:27:03 10° NNE 12:32:02 20° SSE 12:33:23 10° SSE visible
11 Dec 8.2 14:00:47 10° NNW 14:06:10 - WSW 14:01:53 15° NW visible
